Year,Month,Day,Hour,Minute,Value (Times are PST for temperature in C)
2010,09,29,06,00,10.30
2010,09,29,06,01,10.30
2010,09,29,06,02,10.30
2010,09,29,06,03,10.30
2010,09,29,06,04,10.30
2010,09,29,06,05,10.30
2010,09,29,06,06,10.30
2010,09,29,06,07,10.30
2010,09,29,06,08,10.30
2010,09,29,06,09,10.30
2010,09,29,06,10,10.30
2010,09,29,06,11,10.30
2010,09,29,06,12,10.30
2010,09,29,06,13,10.30
2010,09,29,06,14,10.30
2010,09,29,06,15,10.30
2010,09,29,06,16,10.30
2010,09,29,06,17,10.30
2010,09,29,06,18,10.30
2010,09,29,06,19,10.30
2010,09,29,06,20,10.30
2010,09,29,06,21,10.30
2010,09,29,06,22,10.30
2010,09,29,06,23,10.30
2010,09,29,06,24,10.30
2010,09,29,06,25,10.30
2010,09,29,06,26,10.30
2010,09,29,06,27,10.30
2010,09,29,06,28,10.30
2010,09,29,06,29,10.20
2010,09,29,06,30,10.20
2010,09,29,06,31,10.20
2010,09,29,06,32,10.20
2010,09,29,06,33,10.20
2010,09,29,06,34,10.10
2010,09,29,06,35,10.10
2010,09,29,06,36,10.10
2010,09,29,06,37,10.10
2010,09,29,06,38,10.10
2010,09,29,06,39,10.10
2010,09,29,06,40,10.10
2010,09,29,06,41,10.10
2010,09,29,06,42,10.10
2010,09,29,06,43,10.10
2010,09,29,06,44,10.10
2010,09,29,06,45,10.10
2010,09,29,06,46,10.10
2010,09,29,06,47,10.10
2010,09,29,06,48,10.10
2010,09,29,06,49,10.10
2010,09,29,06,50,10.10
2010,09,29,06,51,10.10
2010,09,29,06,52,10.10
2010,09,29,06,53,10.10
2010,09,29,06,54,10.10
2010,09,29,06,55,10.10
2010,09,29,06,56,10.10
2010,09,29,06,57,10.10
2010,09,29,06,58,10.10
2010,09,29,06,59,10.10
2010,09,29,07,00,10.10
2010,09,29,07,01,10.10
2010,09,29,07,02,10.10
2010,09,29,07,03,10.10
2010,09,29,07,04,10.10
2010,09,29,07,05,10.10
2010,09,29,07,06,10.10
2010,09,29,07,07,10.00
2010,09,29,07,08,10.10
2010,09,29,07,09,10.10
2010,09,29,07,10,10.10
2010,09,29,07,11,10.10
2010,09,29,07,12,10.10
2010,09,29,07,13,10.10
2010,09,29,07,14,10.10
2010,09,29,07,15,10.10
2010,09,29,07,16,10.10
2010,09,29,07,17,10.10
2010,09,29,07,18,10.10
2010,09,29,07,19,10.10
2010,09,29,07,20,10.10
2010,09,29,07,21,10.20
2010,09,29,07,22,10.20
2010,09,29,07,23,10.20
2010,09,29,07,24,10.20
2010,09,29,07,25,10.20
2010,09,29,07,26,10.20
2010,09,29,07,27,10.30
2010,09,29,07,28,10.30
2010,09,29,07,29,10.30
2010,09,29,07,30,10.30
2010,09,29,07,31,10.30
2010,09,29,07,32,10.30
2010,09,29,07,33,10.30
2010,09,29,07,34,10.30
2010,09,29,07,35,10.30
2010,09,29,07,36,10.30
2010,09,29,07,37,10.30
2010,09,29,07,38,10.30
2010,09,29,07,39,10.30
2010,09,29,07,40,10.30
2010,09,29,07,41,10.30
2010,09,29,07,42,10.30
2010,09,29,07,43,10.30
2010,09,29,07,44,10.30
2010,09,29,07,45,10.30
2010,09,29,07,46,10.20
2010,09,29,07,47,10.20
2010,09,29,07,48,10.20
2010,09,29,07,49,10.20
2010,09,29,07,50,10.20
2010,09,29,07,51,10.20
2010,09,29,07,52,10.20
2010,09,29,07,53,10.20
2010,09,29,07,54,10.20
2010,09,29,07,55,10.30
2010,09,29,07,56,10.30
2010,09,29,07,57,10.30
2010,09,29,07,58,10.30
2010,09,29,07,59,10.30
2010,09,29,08,00,10.30
2010,09,29,08,01,10.30
2010,09,29,08,02,10.30
2010,09,29,08,03,10.40
2010,09,29,08,04,10.40
2010,09,29,08,05,10.40
2010,09,29,08,06,10.50
2010,09,29,08,07,10.60
2010,09,29,08,08,10.60
2010,09,29,08,09,10.60
2010,09,29,08,10,10.70
2010,09,29,08,11,10.70
2010,09,29,08,12,10.70
2010,09,29,08,13,10.70
2010,09,29,08,14,10.70
2010,09,29,08,15,10.70
2010,09,29,08,16,10.80
2010,09,29,08,17,10.80
2010,09,29,08,18,10.80
2010,09,29,08,19,10.80
2010,09,29,08,20,10.80
2010,09,29,08,21,10.80
2010,09,29,08,22,10.80
2010,09,29,08,23,10.90
2010,09,29,08,24,10.90
2010,09,29,08,25,10.90
2010,09,29,08,26,10.90
2010,09,29,08,27,11.00
2010,09,29,08,28,11.00
2010,09,29,08,29,11.10
2010,09,29,08,30,11.10
2010,09,29,08,31,11.10
2010,09,29,08,32,11.10
2010,09,29,08,33,11.20
2010,09,29,08,34,11.20
2010,09,29,08,35,11.20
2010,09,29,08,36,11.30
2010,09,29,08,37,11.30
2010,09,29,08,38,11.30
2010,09,29,08,39,11.30
2010,09,29,08,40,11.40
2010,09,29,08,41,11.40
2010,09,29,08,42,11.40
2010,09,29,08,43,11.40
2010,09,29,08,44,11.40
2010,09,29,08,45,11.50
2010,09,29,08,46,11.50
2010,09,29,08,47,11.60
2010,09,29,08,48,11.60
2010,09,29,08,49,11.60
2010,09,29,08,50,11.60
2010,09,29,08,51,11.70
2010,09,29,08,52,11.70
2010,09,29,08,53,11.70
2010,09,29,08,54,11.70
2010,09,29,08,55,11.70
2010,09,29,08,56,11.80
2010,09,29,08,57,11.80
2010,09,29,08,58,11.80
2010,09,29,08,59,11.80
2010,09,29,09,00,11.90
2010,09,29,09,01,11.90
2010,09,29,09,02,11.90
2010,09,29,09,03,11.90
2010,09,29,09,04,11.90
2010,09,29,09,05,11.90
2010,09,29,09,06,12.00
2010,09,29,09,07,12.00
2010,09,29,09,08,12.10
2010,09,29,09,09,12.10
2010,09,29,09,10,12.10
2010,09,29,09,11,12.10
2010,09,29,09,12,12.10
2010,09,29,09,13,12.20
2010,09,29,09,14,12.20
2010,09,29,09,15,12.20
2010,09,29,09,16,12.20
2010,09,29,09,17,12.30
2010,09,29,09,18,12.30
2010,09,29,09,19,12.30
2010,09,29,09,20,12.40
2010,09,29,09,21,12.50
2010,09,29,09,22,12.60
2010,09,29,09,23,12.60
2010,09,29,09,24,12.70
2010,09,29,09,25,12.70
2010,09,29,09,26,12.70
2010,09,29,09,27,12.80
2010,09,29,09,28,12.80
2010,09,29,09,29,12.80
2010,09,29,09,30,12.80
2010,09,29,09,31,12.90
2010,09,29,09,32,12.90
2010,09,29,09,33,12.90
2010,09,29,09,34,12.90
2010,09,29,09,35,12.90
2010,09,29,09,36,13.00
2010,09,29,09,37,13.00
2010,09,29,09,38,13.10
2010,09,29,09,39,13.10
2010,09,29,09,40,13.20
2010,09,29,09,41,13.30
2010,09,29,09,42,13.30
2010,09,29,09,43,13.40
2010,09,29,09,44,13.50
2010,09,29,09,45,13.60
2010,09,29,09,46,13.60
2010,09,29,09,47,13.60
2010,09,29,09,48,13.60
2010,09,29,09,49,13.60
2010,09,29,09,50,13.60
2010,09,29,09,51,13.60
2010,09,29,09,52,13.60
2010,09,29,09,53,13.60
2010,09,29,09,54,13.50
2010,09,29,09,55,13.50
2010,09,29,09,56,13.40
2010,09,29,09,57,13.30
2010,09,29,09,58,13.30
2010,09,29,09,59,13.20
2010,09,29,10,00,13.20
2010,09,29,10,01,13.20
2010,09,29,10,02,13.20
2010,09,29,10,03,13.20
2010,09,29,10,04,13.30
2010,09,29,10,05,13.30
2010,09,29,10,06,13.40
2010,09,29,10,07,13.40
2010,09,29,10,08,13.50
2010,09,29,10,09,13.60
2010,09,29,10,10,13.70
2010,09,29,10,11,13.70
2010,09,29,10,12,13.80
2010,09,29,10,13,13.80
2010,09,29,10,14,13.80
2010,09,29,10,15,13.80
2010,09,29,10,16,13.90
2010,09,29,10,17,13.90
2010,09,29,10,18,14.00
2010,09,29,10,19,14.00
2010,09,29,10,20,14.10
2010,09,29,10,21,14.10
2010,09,29,10,22,14.20
2010,09,29,10,23,14.20
2010,09,29,10,24,14.20
2010,09,29,10,25,14.20
2010,09,29,10,26,14.30
2010,09,29,10,27,14.30
2010,09,29,10,28,14.30
2010,09,29,10,29,14.30
2010,09,29,10,30,14.30
2010,09,29,10,31,14.30
2010,09,29,10,32,14.30
2010,09,29,10,33,14.30
2010,09,29,10,34,14.30
2010,09,29,10,35,14.30
2010,09,29,10,36,14.30
2010,09,29,10,37,14.30
2010,09,29,10,38,14.30
2010,09,29,10,39,14.30
2010,09,29,10,40,14.40
2010,09,29,10,41,14.40
2010,09,29,10,42,14.40
2010,09,29,10,43,14.40
2010,09,29,10,44,14.50
2010,09,29,10,45,14.60
2010,09,29,10,46,14.60
2010,09,29,10,47,14.60
2010,09,29,10,48,14.70
2010,09,29,10,49,14.70
2010,09,29,10,50,14.70
2010,09,29,10,51,14.70
2010,09,29,10,52,14.70
2010,09,29,10,53,14.70
2010,09,29,10,54,14.70
2010,09,29,10,55,14.80
2010,09,29,10,56,14.90
2010,09,29,10,57,15.00
2010,09,29,10,58,15.00
2010,09,29,10,59,15.00
2010,09,29,11,00,15.00
2010,09,29,11,01,15.00
2010,09,29,11,02,15.10
2010,09,29,11,03,15.20
2010,09,29,11,04,15.20
2010,09,29,11,05,15.20
2010,09,29,11,06,15.20
2010,09,29,11,07,15.20
2010,09,29,11,08,15.20
2010,09,29,11,09,15.20
2010,09,29,11,10,15.20
2010,09,29,11,11,15.20
2010,09,29,11,12,15.20
2010,09,29,11,13,15.20
2010,09,29,11,14,15.20
2010,09,29,11,15,15.20
2010,09,29,11,16,15.20
2010,09,29,11,17,15.30
2010,09,29,11,18,15.30
2010,09,29,11,19,15.40
2010,09,29,11,20,15.40
2010,09,29,11,21,15.60
2010,09,29,11,22,15.70
2010,09,29,11,23,15.70
2010,09,29,11,24,15.70
2010,09,29,11,25,15.80
2010,09,29,11,26,15.80
2010,09,29,11,27,15.80
2010,09,29,11,28,15.80
2010,09,29,11,29,15.90
2010,09,29,11,30,15.80
2010,09,29,11,31,15.80
2010,09,29,11,32,15.80
2010,09,29,11,33,15.90
2010,09,29,11,34,16.00
2010,09,29,11,35,16.10
2010,09,29,11,36,16.10
2010,09,29,11,37,16.10
2010,09,29,11,38,16.20
2010,09,29,11,39,16.20
2010,09,29,11,40,16.20
2010,09,29,11,41,16.20
2010,09,29,11,42,16.20
2010,09,29,11,43,16.30
2010,09,29,11,44,16.30
2010,09,29,11,45,16.30
2010,09,29,11,46,16.30
2010,09,29,11,47,16.40
2010,09,29,11,48,16.30
2010,09,29,11,49,16.30
2010,09,29,11,50,16.30
2010,09,29,11,51,16.20
2010,09,29,11,52,16.20
2010,09,29,11,53,16.20
2010,09,29,11,54,16.20
2010,09,29,11,55,16.20
2010,09,29,11,56,16.10
2010,09,29,11,57,16.10
2010,09,29,11,58,16.10
2010,09,29,11,59,16.10
2010,09,29,12,00,16.10
2010,09,29,12,01,16.10
2010,09,29,12,02,16.10
2010,09,29,12,03,16.20
2010,09,29,12,04,16.20
2010,09,29,12,05,16.30
2010,09,29,12,06,16.30
2010,09,29,12,07,16.30
2010,09,29,12,08,16.30
2010,09,29,12,09,16.30
2010,09,29,12,10,16.30
2010,09,29,12,11,16.30
2010,09,29,12,12,16.30
2010,09,29,12,13,16.40
2010,09,29,12,14,16.40
2010,09,29,12,15,16.40
2010,09,29,12,16,16.40
2010,09,29,12,17,16.30
2010,09,29,12,18,16.30
2010,09,29,12,19,16.30
2010,09,29,12,20,16.30
2010,09,29,12,21,16.30
2010,09,29,12,22,16.30
2010,09,29,12,23,16.30
2010,09,29,12,24,16.30
2010,09,29,12,25,16.40
2010,09,29,12,26,16.40
2010,09,29,12,27,16.40
2010,09,29,12,28,16.60
2010,09,29,12,29,16.60
2010,09,29,12,30,16.70
2010,09,29,12,31,16.70
2010,09,29,12,32,16.80
2010,09,29,12,33,16.90
2010,09,29,12,34,17.10
2010,09,29,12,35,17.20
2010,09,29,12,36,17.30
2010,09,29,12,37,17.30
2010,09,29,12,38,17.30
2010,09,29,12,39,17.40
2010,09,29,12,40,17.40
2010,09,29,12,41,17.40
2010,09,29,12,42,17.40
2010,09,29,12,43,17.50
2010,09,29,12,44,17.50
2010,09,29,12,45,17.60
2010,09,29,12,46,17.60
2010,09,29,12,47,17.60
2010,09,29,12,48,17.60
2010,09,29,12,49,17.70
2010,09,29,12,50,17.70
2010,09,29,12,51,17.70
2010,09,29,12,52,17.80
2010,09,29,12,53,17.80
2010,09,29,12,54,17.80
2010,09,29,12,55,17.90
2010,09,29,12,56,17.90
2010,09,29,12,57,18.10
2010,09,29,12,58,18.10
2010,09,29,12,59,18.20
2010,09,29,13,00,18.20
2010,09,29,13,01,18.10
2010,09,29,13,02,18.10
2010,09,29,13,03,18.20
2010,09,29,13,04,18.10
2010,09,29,13,05,18.10
2010,09,29,13,06,17.90
2010,09,29,13,07,17.90
2010,09,29,13,08,17.90
2010,09,29,13,09,17.90
2010,09,29,13,10,17.90
2010,09,29,13,11,17.90
2010,09,29,13,12,17.90
2010,09,29,13,13,17.90
2010,09,29,13,14,17.90
2010,09,29,13,15,17.90
2010,09,29,13,16,17.90
2010,09,29,13,17,17.90
2010,09,29,13,18,17.90
2010,09,29,13,19,17.90
2010,09,29,13,20,17.90
2010,09,29,13,21,17.90
2010,09,29,13,22,17.90
2010,09,29,13,23,17.90
2010,09,29,13,24,17.90
2010,09,29,13,25,17.90
2010,09,29,13,26,18.00
2010,09,29,13,27,18.00
2010,09,29,13,28,18.10
2010,09,29,13,29,18.10
2010,09,29,13,30,18.10
2010,09,29,13,31,18.10
2010,09,29,13,32,18.20
2010,09,29,13,33,18.20
2010,09,29,13,34,18.30
2010,09,29,13,35,18.40
2010,09,29,13,36,18.40
2010,09,29,13,37,18.50
2010,09,29,13,38,18.60
2010,09,29,13,39,18.60
2010,09,29,13,40,18.60
2010,09,29,13,41,18.60
2010,09,29,13,42,18.70
2010,09,29,13,43,18.70
2010,09,29,13,44,18.80
2010,09,29,13,45,18.80
2010,09,29,13,46,18.90
2010,09,29,13,47,18.90
2010,09,29,13,48,19.00
2010,09,29,13,49,19.10
2010,09,29,13,50,19.10
2010,09,29,13,51,19.10
2010,09,29,13,52,19.10
2010,09,29,13,53,19.10
2010,09,29,13,54,19.10
2010,09,29,13,55,19.10
2010,09,29,13,56,19.10
2010,09,29,13,57,19.10
2010,09,29,13,58,19.20
2010,09,29,13,59,19.20
2010,09,29,14,00,19.20
2010,09,29,14,01,19.20
2010,09,29,14,02,19.20
2010,09,29,14,03,19.30
2010,09,29,14,04,19.30
2010,09,29,14,05,19.30
2010,09,29,14,06,19.40
2010,09,29,14,07,19.40
2010,09,29,14,08,19.50
2010,09,29,14,09,19.60
2010,09,29,14,10,19.60
2010,09,29,14,11,19.70
2010,09,29,14,12,19.70
2010,09,29,14,13,19.70
2010,09,29,14,14,19.70
2010,09,29,14,15,19.60
2010,09,29,14,16,19.60
2010,09,29,14,17,19.50
2010,09,29,14,18,19.50
2010,09,29,14,19,19.40
2010,09,29,14,20,19.40
2010,09,29,14,21,19.40
2010,09,29,14,22,19.40
2010,09,29,14,23,19.40
2010,09,29,14,24,19.50
2010,09,29,14,25,19.50
2010,09,29,14,26,19.50
2010,09,29,14,27,19.50
2010,09,29,14,28,19.40
2010,09,29,14,29,19.40
2010,09,29,14,30,19.40
2010,09,29,14,31,19.40
2010,09,29,14,32,19.50
2010,09,29,14,33,19.50
2010,09,29,14,34,19.60
2010,09,29,14,35,19.70
2010,09,29,14,36,19.80
2010,09,29,14,37,19.80
2010,09,29,14,38,19.80
2010,09,29,14,39,19.80
2010,09,29,14,40,19.80
2010,09,29,14,41,19.90
2010,09,29,14,42,19.90
2010,09,29,14,43,19.90
2010,09,29,14,44,19.90
2010,09,29,14,45,19.90
2010,09,29,14,46,19.90
2010,09,29,14,47,19.90
2010,09,29,14,48,19.90
2010,09,29,14,49,19.90
2010,09,29,14,50,20.00
2010,09,29,14,51,20.00
2010,09,29,14,52,20.00
2010,09,29,14,53,20.00
2010,09,29,14,54,20.00
2010,09,29,14,55,20.00
2010,09,29,14,56,20.00
2010,09,29,14,57,19.90
2010,09,29,14,58,19.90
2010,09,29,14,59,19.90
2010,09,29,15,00,19.90
2010,09,29,15,01,19.90
2010,09,29,15,02,19.90
2010,09,29,15,03,19.90
2010,09,29,15,04,19.90
2010,09,29,15,05,20.00
2010,09,29,15,06,20.00
2010,09,29,15,07,20.00
2010,09,29,15,08,20.00
2010,09,29,15,09,19.90
2010,09,29,15,10,19.90
2010,09,29,15,11,19.90
2010,09,29,15,12,19.90
2010,09,29,15,13,19.90
2010,09,29,15,14,20.00
2010,09,29,15,15,20.00
2010,09,29,15,16,20.00
2010,09,29,15,17,20.10
2010,09,29,15,18,20.00
2010,09,29,15,19,20.00
2010,09,29,15,20,20.00
2010,09,29,15,21,20.00
2010,09,29,15,22,20.00
2010,09,29,15,23,20.00
2010,09,29,15,24,20.10
2010,09,29,15,25,20.10
2010,09,29,15,26,20.10
2010,09,29,15,27,20.10
2010,09,29,15,28,20.10
2010,09,29,15,29,20.10
2010,09,29,15,30,20.20
2010,09,29,15,31,20.20
2010,09,29,15,32,20.30
2010,09,29,15,33,20.30
2010,09,29,15,34,20.30
2010,09,29,15,35,20.30
2010,09,29,15,36,20.30
2010,09,29,15,37,20.20
2010,09,29,15,38,20.20
2010,09,29,15,39,20.20
2010,09,29,15,40,20.20
2010,09,29,15,41,20.20
2010,09,29,15,42,20.20
2010,09,29,15,43,20.30
2010,09,29,15,44,20.30
2010,09,29,15,45,20.30
2010,09,29,15,46,20.30
2010,09,29,15,47,20.30
2010,09,29,15,48,20.30
2010,09,29,15,49,20.20
2010,09,29,15,50,20.20
2010,09,29,15,51,20.20
2010,09,29,15,52,20.20
2010,09,29,15,53,20.20
2010,09,29,15,54,20.20
2010,09,29,15,55,20.20
2010,09,29,15,56,20.30
2010,09,29,15,57,20.30
2010,09,29,15,58,20.30
2010,09,29,15,59,20.30
2010,09,29,16,00,20.40
2010,09,29,16,01,20.40
2010,09,29,16,02,20.40
2010,09,29,16,03,20.40
2010,09,29,16,04,20.40
2010,09,29,16,05,20.40
2010,09,29,16,06,20.40
2010,09,29,16,07,20.30
2010,09,29,16,08,20.30
2010,09,29,16,09,20.30
2010,09,29,16,10,20.40
2010,09,29,16,11,20.40
2010,09,29,16,12,20.40
2010,09,29,16,13,20.50
2010,09,29,16,14,20.50
2010,09,29,16,15,20.50
2010,09,29,16,16,20.60
2010,09,29,16,17,20.60
2010,09,29,16,18,20.60
2010,09,29,16,19,20.70
2010,09,29,16,20,20.70
2010,09,29,16,21,20.70
2010,09,29,16,22,20.80
2010,09,29,16,23,20.80
2010,09,29,16,24,20.90
2010,09,29,16,25,21.00
2010,09,29,16,26,21.10
2010,09,29,16,27,21.10
2010,09,29,16,28,21.20
2010,09,29,16,29,21.20
2010,09,29,16,30,21.20
2010,09,29,16,31,21.20
2010,09,29,16,32,21.20
2010,09,29,16,33,21.20
2010,09,29,16,34,21.20
2010,09,29,16,35,21.20
2010,09,29,16,36,21.20
2010,09,29,16,37,21.20
2010,09,29,16,38,21.20
2010,09,29,16,39,21.20
2010,09,29,16,40,21.10
2010,09,29,16,41,21.10
2010,09,29,16,42,21.10
2010,09,29,16,43,21.10
2010,09,29,16,44,20.90
2010,09,29,16,45,20.90
2010,09,29,16,46,20.80
2010,09,29,16,47,20.80
2010,09,29,16,48,20.80
2010,09,29,16,49,20.80
2010,09,29,16,50,20.80
2010,09,29,16,51,20.80
2010,09,29,16,52,20.80
2010,09,29,16,53,20.70
2010,09,29,16,54,20.70
2010,09,29,16,55,20.70
2010,09,29,16,56,20.60
2010,09,29,16,57,20.60
2010,09,29,16,58,20.60
2010,09,29,16,59,20.50
2010,09,29,17,00,20.40
2010,09,29,17,01,20.40
2010,09,29,17,02,20.40
2010,09,29,17,03,20.40
2010,09,29,17,04,20.30
2010,09,29,17,05,20.30
2010,09,29,17,06,20.30
2010,09,29,17,07,20.30
2010,09,29,17,08,20.30
2010,09,29,17,09,20.30
2010,09,29,17,10,20.30
2010,09,29,17,11,20.30
2010,09,29,17,12,20.30
2010,09,29,17,13,20.30
2010,09,29,17,14,20.30
2010,09,29,17,15,20.30
2010,09,29,17,16,20.30
2010,09,29,17,17,20.20
2010,09,29,17,18,20.20
2010,09,29,17,19,20.20
2010,09,29,17,20,20.20
2010,09,29,17,21,20.20
2010,09,29,17,22,20.20
2010,09,29,17,23,20.10
2010,09,29,17,24,20.10
2010,09,29,17,25,20.10
2010,09,29,17,26,20.00
2010,09,29,17,27,20.00
2010,09,29,17,28,19.90
2010,09,29,17,29,19.90
2010,09,29,17,30,19.90
2010,09,29,17,31,19.80
2010,09,29,17,32,19.80
2010,09,29,17,33,19.80
2010,09,29,17,34,19.80
2010,09,29,17,35,19.80
2010,09,29,17,36,19.70
2010,09,29,17,37,19.70
2010,09,29,17,38,19.70
2010,09,29,17,39,19.70
2010,09,29,17,40,19.70
2010,09,29,17,41,19.70
2010,09,29,17,42,19.70
2010,09,29,17,43,19.60
2010,09,29,17,44,19.60
2010,09,29,17,45,19.50
2010,09,29,17,46,19.50
2010,09,29,17,47,19.40
2010,09,29,17,48,19.40
2010,09,29,17,49,19.40
2010,09,29,17,50,19.40
2010,09,29,17,51,19.30
2010,09,29,17,52,19.30
2010,09,29,17,53,19.30
2010,09,29,17,54,19.30
2010,09,29,17,55,19.30
2010,09,29,17,56,19.30
2010,09,29,17,57,19.30
2010,09,29,17,58,19.30
2010,09,29,17,59,19.30
2010,09,29,18,00,19.30
2010,09,29,18,01,19.20
2010,09,29,18,02,19.20
2010,09,29,18,03,19.20
2010,09,29,18,04,19.20
2010,09,29,18,05,19.20
2010,09,29,18,06,19.20
2010,09,29,18,07,19.20
2010,09,29,18,08,19.10
2010,09,29,18,09,19.10
2010,09,29,18,10,19.10
2010,09,29,18,11,19.10
2010,09,29,18,12,19.10
2010,09,29,18,13,19.10
2010,09,29,18,14,19.00
2010,09,29,18,15,19.00
2010,09,29,18,16,18.90
2010,09,29,18,17,18.90
2010,09,29,18,18,18.90
2010,09,29,18,19,18.80
2010,09,29,18,20,18.80
2010,09,29,18,21,18.80
2010,09,29,18,22,18.70
2010,09,29,18,23,18.70
2010,09,29,18,24,18.70
2010,09,29,18,25,18.60
2010,09,29,18,26,18.60
2010,09,29,18,27,18.50
2010,09,29,18,28,18.50
2010,09,29,18,29,18.40
2010,09,29,18,30,18.40
2010,09,29,18,31,18.30
2010,09,29,18,32,18.30
2010,09,29,18,33,18.30
2010,09,29,18,34,18.30
2010,09,29,18,35,18.20
2010,09,29,18,36,18.20
2010,09,29,18,37,18.20
2010,09,29,18,38,18.20
2010,09,29,18,39,18.10
2010,09,29,18,40,18.10
2010,09,29,18,41,18.10
2010,09,29,18,42,18.10
2010,09,29,18,43,18.00
2010,09,29,18,44,18.00
2010,09,29,18,45,17.90
2010,09,29,18,46,17.90
2010,09,29,18,47,17.90
2010,09,29,18,48,17.90
2010,09,29,18,49,17.90
2010,09,29,18,50,17.90
2010,09,29,18,51,17.90
2010,09,29,18,52,17.80
2010,09,29,18,53,17.80
2010,09,29,18,54,17.80
2010,09,29,18,55,17.80
2010,09,29,18,56,17.80
2010,09,29,18,57,17.80
2010,09,29,18,58,17.80
2010,09,29,18,59,17.80
2010,09,29,19,00,17.80
2010,09,29,19,01,17.70
2010,09,29,19,02,17.70
2010,09,29,19,03,17.70
2010,09,29,19,04,17.70
2010,09,29,19,05,17.70
2010,09,29,19,06,17.60
2010,09,29,19,07,17.60
2010,09,29,19,08,17.50
2010,09,29,19,09,17.50
2010,09,29,19,10,17.40
2010,09,29,19,11,17.40
2010,09,29,19,12,17.40
2010,09,29,19,13,17.30
2010,09,29,19,14,17.30
2010,09,29,19,15,17.30
2010,09,29,19,16,17.20
2010,09,29,19,17,17.10
2010,09,29,19,18,17.10
2010,09,29,19,19,17.00
2010,09,29,19,20,16.90
2010,09,29,19,21,16.90
2010,09,29,19,22,16.80
2010,09,29,19,23,16.80
2010,09,29,19,24,16.70
2010,09,29,19,25,16.70
2010,09,29,19,26,16.70
2010,09,29,19,27,16.60
2010,09,29,19,28,16.60
2010,09,29,19,29,16.60
2010,09,29,19,30,16.50
2010,09,29,19,31,16.40
2010,09,29,19,32,16.40
2010,09,29,19,33,16.40
2010,09,29,19,34,16.40
2010,09,29,19,35,16.30
2010,09,29,19,36,16.30
2010,09,29,19,37,16.20
2010,09,29,19,38,16.20
2010,09,29,19,39,16.20
2010,09,29,19,40,16.10
2010,09,29,19,41,16.10
2010,09,29,19,42,16.10
2010,09,29,19,43,16.00
2010,09,29,19,44,15.90
2010,09,29,19,45,15.90
2010,09,29,19,46,15.90
2010,09,29,19,47,15.90
2010,09,29,19,48,15.80
2010,09,29,19,49,15.80
2010,09,29,19,50,15.80
2010,09,29,19,51,15.70
2010,09,29,19,52,15.70
2010,09,29,19,53,15.70
2010,09,29,19,54,15.60
2010,09,29,19,55,15.60
2010,09,29,19,56,15.60
2010,09,29,19,57,15.50
2010,09,29,19,58,15.40
2010,09,29,19,59,15.40
2010,09,29,20,00,15.30
2010,09,29,20,01,15.30
2010,09,29,20,02,15.20
2010,09,29,20,03,15.20
2010,09,29,20,04,15.20
2010,09,29,20,05,15.10
2010,09,29,20,06,15.10
2010,09,29,20,07,15.00
2010,09,29,20,08,15.00
2010,09,29,20,09,15.00
2010,09,29,20,10,15.00
2010,09,29,20,11,15.00
2010,09,29,20,12,15.00
2010,09,29,20,13,15.00
2010,09,29,20,14,15.00
2010,09,29,20,15,15.00
2010,09,29,20,16,14.90
2010,09,29,20,17,14.90
2010,09,29,20,18,14.80
2010,09,29,20,19,14.80
2010,09,29,20,20,14.80
2010,09,29,20,21,14.70
2010,09,29,20,22,14.70
2010,09,29,20,23,14.70
2010,09,29,20,24,14.60
2010,09,29,20,25,14.60
2010,09,29,20,26,14.60
2010,09,29,20,27,14.60
2010,09,29,20,28,14.50
2010,09,29,20,29,14.40
2010,09,29,20,30,14.40
2010,09,29,20,31,14.40
2010,09,29,20,32,14.40
2010,09,29,20,33,14.40
2010,09,29,20,34,14.30
2010,09,29,20,35,14.30
2010,09,29,20,36,14.30
2010,09,29,20,37,14.30
2010,09,29,20,38,14.30
2010,09,29,20,39,14.30
2010,09,29,20,40,14.20
2010,09,29,20,41,14.20
2010,09,29,20,42,14.20
2010,09,29,20,43,14.10
2010,09,29,20,44,14.10
2010,09,29,20,45,14.10
2010,09,29,20,46,14.10
2010,09,29,20,47,14.00
2010,09,29,20,48,13.90
2010,09,29,20,49,13.90
2010,09,29,20,50,13.90
2010,09,29,20,51,13.90
2010,09,29,20,52,13.80
2010,09,29,20,53,13.80
2010,09,29,20,54,13.80
2010,09,29,20,55,13.80
2010,09,29,20,56,13.80
2010,09,29,20,57,13.80
2010,09,29,20,58,13.70
2010,09,29,20,59,13.70
2010,09,29,21,00,13.70
2010,09,29,21,01,13.70
2010,09,29,21,02,13.70
2010,09,29,21,03,13.70
2010,09,29,21,04,13.70
2010,09,29,21,05,13.70
2010,09,29,21,06,13.70
2010,09,29,21,07,13.80
2010,09,29,21,08,13.80
2010,09,29,21,09,13.80
2010,09,29,21,10,13.80
2010,09,29,21,11,13.80
2010,09,29,21,12,13.80
2010,09,29,21,13,13.80
2010,09,29,21,14,13.70
2010,09,29,21,15,13.70
2010,09,29,21,16,13.70
2010,09,29,21,17,13.70
2010,09,29,21,18,13.60
2010,09,29,21,19,13.60
2010,09,29,21,20,13.60
2010,09,29,21,21,13.50
2010,09,29,21,22,13.50
2010,09,29,21,23,13.40
2010,09,29,21,24,13.40
2010,09,29,21,25,13.40
2010,09,29,21,26,13.40
2010,09,29,21,27,13.30
2010,09,29,21,28,13.30
2010,09,29,21,29,13.30
2010,09,29,21,30,13.30
2010,09,29,21,31,13.30
2010,09,29,21,32,13.20
2010,09,29,21,33,13.20
2010,09,29,21,34,13.20
2010,09,29,21,35,13.20
2010,09,29,21,36,13.10
2010,09,29,21,37,13.10
2010,09,29,21,38,13.00
2010,09,29,21,39,13.00
2010,09,29,21,40,12.90
2010,09,29,21,41,12.90
2010,09,29,21,42,12.90
2010,09,29,21,43,12.80
2010,09,29,21,44,12.80
2010,09,29,21,45,12.70
2010,09,29,21,46,12.70
2010,09,29,21,47,12.70
2010,09,29,21,48,12.60
2010,09,29,21,49,12.60
2010,09,29,21,50,12.60
2010,09,29,21,51,12.60
2010,09,29,21,52,12.50
2010,09,29,21,53,12.40
2010,09,29,21,54,12.40
2010,09,29,21,55,12.40
2010,09,29,21,56,12.40
2010,09,29,21,57,12.40
2010,09,29,21,58,12.40
2010,09,29,21,59,12.30
2010,09,29,22,00,12.30
2010,09,29,22,01,12.30
2010,09,29,22,02,12.30
2010,09,29,22,03,12.30
2010,09,29,22,04,12.20
2010,09,29,22,05,12.20
2010,09,29,22,06,12.20
2010,09,29,22,07,12.20
2010,09,29,22,08,12.20
2010,09,29,22,09,12.20
2010,09,29,22,10,12.20
2010,09,29,22,11,12.10
2010,09,29,22,12,12.10
2010,09,29,22,13,12.10
2010,09,29,22,14,12.10
2010,09,29,22,15,12.00
2010,09,29,22,16,12.00
2010,09,29,22,17,11.90
2010,09,29,22,18,11.90
2010,09,29,22,19,11.90
2010,09,29,22,20,11.90
2010,09,29,22,21,11.80
2010,09,29,22,22,11.80
2010,09,29,22,23,11.80
2010,09,29,22,24,11.80
2010,09,29,22,25,11.80
2010,09,29,22,26,11.70
2010,09,29,22,27,11.70
2010,09,29,22,28,11.70
2010,09,29,22,29,11.70
2010,09,29,22,30,11.60
2010,09,29,22,31,11.60
2010,09,29,22,32,11.60
2010,09,29,22,33,11.60
2010,09,29,22,34,11.60
2010,09,29,22,35,11.60
2010,09,29,22,36,11.60
2010,09,29,22,37,11.60
2010,09,29,22,38,11.60
2010,09,29,22,39,11.60
2010,09,29,22,40,11.60
2010,09,29,22,41,11.60
2010,09,29,22,42,11.50
2010,09,29,22,43,11.50
2010,09,29,22,44,11.40
2010,09,29,22,45,11.40
2010,09,29,22,46,11.40
2010,09,29,22,47,11.30
2010,09,29,22,48,11.30
2010,09,29,22,49,11.30
2010,09,29,22,50,11.30
2010,09,29,22,51,11.30
2010,09,29,22,52,11.20
2010,09,29,22,53,11.30
2010,09,29,22,54,11.30
2010,09,29,22,55,11.30
2010,09,29,22,56,11.20
2010,09,29,22,57,11.20
2010,09,29,22,58,11.20
2010,09,29,22,59,11.20
2010,09,29,23,00,11.20
2010,09,29,23,01,11.20
2010,09,29,23,02,11.20
2010,09,29,23,03,11.20
2010,09,29,23,04,11.20
2010,09,29,23,05,11.10
2010,09,29,23,06,11.10
2010,09,29,23,07,11.10
2010,09,29,23,08,11.10
2010,09,29,23,09,11.10
2010,09,29,23,10,11.10
2010,09,29,23,11,11.00
2010,09,29,23,12,11.00
2010,09,29,23,13,11.00
2010,09,29,23,14,11.00
2010,09,29,23,15,10.90
2010,09,29,23,16,10.90
2010,09,29,23,17,10.90
2010,09,29,23,18,10.90
2010,09,29,23,19,10.90